KE0TNI-13 Weather Reports


time (UTC)temp
F
wind
direction
speed
knots
gust
knots
rain 1hr
in
rain 24hr
in
rain mn
in
humidity
%
barometer
mb
20260505053910 36 106 2.6 3.5 0.00 0.32 0.32 96 1015.3
20260505053407 36 222 0.0 0.9 0.00 0.32 0.32 96 1014.9
20260505052903 35 82 0.9 1.7 0.00 0.32 0.32 96 1015.0
20260505052400 35 101 3.5 3.5 0.00 0.32 0.32 96 1015.2
20260505051858 35 124 2.6 2.6 0.00 0.32 0.32 96 1015.0
20260505051355 35 121 0.9 1.7 0.00 0.32 0.32 96 1015.2
20260505050853 35 92 0.0 1.7 0.00 0.32 0.32 96 1015.4
20260505050351 35 97 1.7 1.7 0.00 0.32 0.32 96 1015.4
20260505041318 36 130 3.5 5.2 0.05 0.32 0.32 95 1015.7
20260505040815 36 120 3.5 3.5 0.09 0.32 0.32 95 1015.9
20260505040313 36 102 1.7 1.7 0.14 0.31 0.31 94 1016.1
20260505035809 35 99 1.7 2.6 0.14 0.30 0.30 94 1016.1
20260505035305 36 80 0.9 1.7 0.14 0.29 0.29 94 1015.9
20260505034803 36 123 0.9 1.7 0.12 0.28 0.28 94 1016.2
20260505034259 36 142 0.0 1.7 0.17 0.26 0.26 94 1016.5
20260505033756 37 118 1.7 1.7 0.21 0.25 0.25 94 1016.2
20260505033254 37 171 0.0 1.7 0.19 0.24 0.24 94 1015.9
20260505032751 38 136 0.0 1.7 0.12 0.22 0.22 94 1016.1
20260505032247 38 39 0.0 0.9 0.09 0.20 0.20 94 1016.2
20260505031745 38 65 0.9 1.7 0.05 0.20 0.20 93 1015.9
20260505031241 38 34 0.0 2.6 0.02 0.19 0.19 92 1015.8
20260505030738 38 89 0.9 3.5 0.05 0.19 0.19 92 1015.4
20260505030234 38 136 3.5 4.3 0.05 0.18 0.18 91 1015.6
20260505025730 38 122 2.6 3.5 0.07 0.18 0.18 90 1015.7
20260505025228 39 104 2.6 3.5 0.07 0.18 0.18 90 1015.6
20260505024726 39 113 2.6 4.3 0.02 0.17 0.17 89 1015.4
20260505024223 39 87 2.6 3.5 0.00 0.17 0.17 90 1015.4
20260505023720 39 103 2.6 3.5 0.00 0.17 0.17 88 1015.2
20260505023217 39 71 2.6 5.2 0.00 0.17 0.17 90 1014.9
20260505022715 39 119 1.7 2.6 0.00 0.17 0.17 90 1015.2
20260505022212 39 112 2.6 2.6 0.00 0.17 0.17 91 1015.0
20260505021708 39 122 2.6 3.5 0.00 0.17 0.17 92 1014.8
20260505021206 39 18 1.7 4.3 0.00 0.17 0.17 92 1014.8
20260505020701 39 114 1.7 1.7 0.00 0.17 0.17 92 1014.7
20260505020157 39 45 1.7 2.6 0.00 0.17 0.17 90 1014.5
20260505015655 39 87 2.6 2.6 0.00 0.17 0.17 90 1014.4
20260505015151 39 103 3.5 3.5 0.00 0.17 0.17 88 1014.5
20260505014648 39 125 4.3 7.8 0.00 0.17 0.17 87 1014.1
20260505014145 39 124 4.3 6.1 0.00 0.17 0.17 88 1014.7
20260505013642 39 127 4.3 7.8 0.00 0.17 0.17 86 1014.4
20260505013139 40 136 5.2 6.1 0.00 0.17 0.17 87 1014.4
20260505012638 40 120 4.3 5.2 0.00 0.17 0.17 88 1014.8
20260505012134 40 116 2.6 5.2 0.00 0.17 0.17 89 1014.7
20260505011630 40 134 4.3 7.0 0.00 0.17 0.17 90 1015.0
20260505011128 40 152 3.5 5.2 0.00 0.17 0.17 90 1015.0
20260505010628 41 157 3.5 5.2 0.00 0.17 0.17 90 1014.7
20260505010125 41 153 2.6 5.2 0.00 0.17 0.17 90 1014.9
20260505005621 41 96 2.6 2.6 0.00 0.17 0.17 88 1014.7
20260505005118 41 80 2.6 2.6 0.00 0.17 0.17 88 1014.7
20260505004615 41 104 0.0 4.3 0.00 0.17 0.17 86 1014.7
20260505004112 41 105 2.6 7.0 0.00 0.17 0.17 90 1014.7
20260505003609 40 140 3.5 5.2 0.00 0.17 0.17 93 1014.4
20260505003107 40 139 5.2 6.1 0.00 0.17 0.17 93 1014.7
20260505002602 40 138 4.3 7.0 0.02 0.17 0.17 93 1015.2
20260505002101 39 140 4.3 5.2 0.07 0.17 0.17 92 1014.9
20260505001558 39 105 2.6 5.2 0.09 0.16 0.16 92 1015.6
20260505001055 39 124 3.5 5.2 0.12 0.15 0.15 89 1015.8
20260505000552 39 95 1.7 2.6 0.14 0.15 0.15 88 1016.1
20260505000049 39 73 1.7 2.6 0.09 0.13 0.13 89 1016.1
20260504235546 39 34 1.7 2.6 0.07 0.13 0.13 89 1016.2
20260504235043 39 102 0.9 3.5 0.05 0.12 0.12 88 1015.8
20260504234540 39 49 0.0 3.5 0.05 0.11 0.11 88 1015.8
20260504234037 39 219 1.7 2.6 0.05 0.11 0.11 87 1015.4
20260504233532 39 250 1.7 2.6 0.05 0.11 0.11 86 1015.6
20260504233029 39 274 1.7 3.5 0.05 0.10 0.10 86 1015.2
20260504232526 40 45 0.0 1.7 0.05 0.10 0.10 87 1015.0
20260504232024 40 125 1.7 2.6 0.07 0.09 0.09 88 1015.0
20260504231520 40 97 1.7 2.6 0.02 0.09 0.09 89 1014.9
20260504231016 41 124 1.7 2.6 0.00 0.08 0.08 90 1014.8
20260504230513 41 127 1.7 1.7 0.02 0.08 0.08 90 1014.8
20260504230012 40 74 1.7 2.6 0.05 0.08 0.08 89 1014.5
20260504225508 40 104 2.6 2.6 0.05 0.08 0.08 88 1014.8
20260504225006 40 114 0.0 0.9 0.05 0.07 0.07 86 1014.3
20260504224502 41 111 2.6 3.5 0.07 0.07 0.07 84 1014.4
20260504223959 41 86 1.7 3.5 0.12 0.06 0.06 81 1014.4
20260504223455 42 95 0.9 3.5 0.14 0.06 0.06 79 1014.4
20260504222951 44 58 1.7 2.6 0.09 0.04 0.04 75 1014.0
20260504222449 45 75 3.5 4.3 0.09 0.04 0.04 74 1014.3
20260504221946 47 106 1.7 2.6 0.17 0.03 0.03 67 1014.1
20260504221443 50 100 1.7 1.7 0.12 0.02 0.02 60 1013.9
20260504220940 52 35 1.7 3.5 0.00 0.00 0.00 45 1013.9
20260504220436 52 120 2.6 3.5 0.00 0.00 0.00 42 1013.9
20260504215934 52 43 1.7 3.5 0.00 0.00 0.00 41 1014.0
20260504215431 53 129 0.0 1.7 0.00 0.00 0.00 39 1013.6
20260504214927 53 147 1.7 3.5 0.00 0.00 0.00 39 1013.6
20260504214423 53 126 0.9 3.5 0.00 0.00 0.00 38 1013.6
20260504213920 53 135 1.7 5.2 0.00 0.00 0.00 38 1013.7
20260504213416 54 133 3.5 3.5 0.00 0.00 0.00 38 1013.7
20260504212914 54 157 1.7 2.6 0.00 0.00 0.00 37 1013.9
20260504212409 53 43 0.0 1.7 0.00 0.00 0.00 37 1013.7
20260504211908 53 306 1.7 1.7 0.00 0.00 0.00 38 1014.1
20260504211403 53 187 2.6 5.2 0.00 0.00 0.00 38 1014.3
20260504210901 54 133 3.5 4.3 0.00 0.00 0.00 39 1014.0
20260504210358 54 112 1.7 3.5 0.00 0.00 0.00 38 1014.1
20260504205855 54 133 5.2 6.1 0.00 0.00 0.00 37 1014.4
20260504205353 55 310 0.0 3.5 0.00 0.00 0.00 38 1014.3
20260504204850 55 137 3.5 5.2 0.00 0.00 0.00 36 1014.1
20260504204349 56 238 2.6 2.6 0.00 0.00 0.00 38 1014.4
20260504203848 55 42 5.2 5.2 0.00 0.00 0.00 37 1014.5
20260504203344 55 310 1.7 3.5 0.00 0.00 0.00 41 1014.7
20260504202840 55 342 1.7 3.5 0.00 0.00 0.00 41 1014.7
20260504202337 56 271 3.5 4.3 0.00 0.00 0.00 40 1014.5
20260504201834 54 237 3.5 5.2 0.00 0.00 0.00 41 1014.7
20260504201331 55 177 1.7 4.3 0.00 0.00 0.00 42 1014.7
20260504200829 54 224 1.7 3.5 0.00 0.00 0.00 41 1014.8
20260504200325 53 182 1.7 3.5 0.00 0.00 0.00 45 1015.2
20260504195821 53 332 1.7 3.5 0.00 0.00 0.00 43 1014.9
20260504195317 52 258 1.7 4.3 0.00 0.00 0.00 43 1014.8
20260504194814 52 239 0.9 4.3 0.00 0.00 0.00 43 1015.0
20260504194310 51 347 0.0 1.7 0.00 0.00 0.00 44 1014.9
20260504193806 51 230 2.6 3.5 0.00 0.00 0.00 42 1015.0
20260504193304 51 228 0.0 2.6 0.00 0.00 0.00 42 1014.9
20260504192803 51 172 0.9 1.7 0.00 0.00 0.00 40 1015.3
20260504192300 51 289 1.7 2.6 0.00 0.00 0.00 41 1015.2
20260504191759 52 232 1.7 2.6 0.00 0.00 0.00 40 1015.0
20260504191255 53 214 0.0 6.1 0.00 0.00 0.00 40 1015.2
20260504190751 52 158 1.7 2.6 0.00 0.00 0.00 40 1015.2
20260504190247 53 299 0.9 2.6 0.00 0.00 0.00 39 1014.9
20260504185744 52 99 1.7 5.2 0.00 0.00 0.00 38 1015.2
20260504185241 52 296 0.0 3.5 0.00 0.00 0.00 39 1014.9
20260504184737 52 195 0.9 1.7 0.00 0.00 0.00 39 1015.2
20260504184233 53 265 2.6 3.5 0.00 0.00 0.00 37 1014.9
20260504183729 54 247 1.7 3.5 0.00 0.00 0.00 37 1014.9
20260504183226 57 245 1.7 5.2 0.00 0.00 0.00 34 1014.7
20260504182724 58 252 3.5 6.1 0.00 0.00 0.00 34 1014.7
20260504182221 56 248 2.6 3.5 0.00 0.00 0.00 33 1014.9
20260504181719 53 65 2.6 4.3 0.00 0.00 0.00 29 1014.9
20260504181216 53 128 3.5 5.2 0.00 0.00 0.00 30 1014.9
20260504180715 53 81 1.7 5.2 0.00 0.00 0.00 30 1015.3
20260504180213 53 132 4.3 7.8 0.00 0.00 0.00 32 1015.2
20260504175710 53 148 4.3 7.0 0.00 0.00 0.00 30 1015.0
20260504175207 53 117 3.5 10.4 0.00 0.00 0.00 31 1014.9
20260504174705 54 110 1.7 3.5 0.00 0.00 0.00 30 1015.2
20260504174202 54 152 1.7 1.7 0.00 0.00 0.00 30 1015.0
20260504173658 54 97 1.7 6.1 0.00 0.00 0.00 30 1015.3
20260504173156 55 147 2.6 2.6 0.00 0.00 0.00 29 1015.3
20260504172652 55 22 1.7 1.7 0.00 0.00 0.00 31 1015.4
20260504172149 55 214 0.0 4.3 0.00 0.00 0.00 30 1015.2
20260504171645 55 251 0.0 2.6 0.00 0.00 0.00 29 1015.0
20260504171143 57 198 1.7 2.6 0.00 0.00 0.00 27 1015.6
20260504170639 58 116 3.5 4.3 0.00 0.00 0.00 26 1015.3
20260504170136 57 112 1.7 7.0 0.00 0.00 0.00 28 1015.7
20260504151028 49 279 2.6 7.8 0.00 0.00 0.00 37 1016.6
20260504150525 49 115 3.5 6.1 0.00 0.00 0.00 37 1016.5
20260504140956 48 138 3.5 5.2 0.00 0.00 0.00 35 1016.5
20260504140453 48 130 0.9 3.5 0.00 0.00 0.00 34 1016.7
20260504130418 48 162 0.9 7.8 0.00 0.00 0.00 33 1015.9
20260504110305 37 84 1.7 2.6 0.00 0.00 0.00 52 1016.3
20260504100223 38 119 1.7 2.6 0.00 0.00 0.00 51 1016.5
20260504081616 37 104 2.6 3.5 0.00 0.00 0.00 54 1017.4
20260504081111 37 128 2.6 2.6 0.00 0.00 0.00 53 1017.2
20260504080609 38 135 3.5 3.5 0.00 0.00 0.00 52 1017.5
20260504080105 38 102 2.6 3.5 0.00 0.00 0.00 50 1017.5